Location: Newark
(50.4348°N, 30.5552°E)
Time: 20:36:46
(UTC+00:00)

Envisat - Pass Details

Date: 09 December 2019
Orbit: 764 x 766 km, 98.1° (Epoch: 28 January)

Event Time Altitude Azimuth Distance (km) Brightness Sun altitude
Rises 16:33:50 0° 190° (S) 3,221 6.4 -24.2°
Reaches altitude 10° 16:36:19 10° 200° (SSW) 2,300 5.8 -24.6°
Maximum altitude 16:40:55 34° 265° (W) 1,244 4.6 -25.4°
Drops below altitude 10° 16:45:33 10° 330° (NNW) 2,316 5.8 -26.1°
Sets 16:48:05 0° 340° (NNW) 3,248 6.4 -26.5°
